• en France
  • Liste des pays
  • À 7 jours
  • Température de l'eau
  • Carte satellitaire
  • Carte météo
  • Widgets météo
  • user-avatar
    Se connecter

    Météo par heure à Lapeki

    Ce jour, 25 Septembre, Mardi

    Heure Température Précipitation Vent Pression Humidité
    00:00 +5°C° 0.1 mm 6 m/s 737 mmHg 91%
    01:00 +6°C° 0.1 mm 5 m/s 738 mmHg 91%
    02:00 +6°C° 0 mm 5 m/s 739 mmHg 92%
    03:00 +5°C° 0 mm 5 m/s 739 mmHg 92%
    04:00 +5°C° 0 mm 5 m/s 740 mmHg 92%
    05:00 +3°C° 0 mm 5 m/s 741 mmHg 93%
    06:00 +3°C° 0 mm 5 m/s 742 mmHg 91%
    07:00 +5°C° 0 mm 5 m/s 742 mmHg 90%
    08:00 +5°C° 0 mm 5 m/s 743 mmHg 88%
    09:00 +5°C° 0.1 mm 5 m/s 744 mmHg 87%
    10:00 +5°C° 0.1 mm 5 m/s 744 mmHg 86%
    11:00 +5°C° 0.1 mm 5 m/s 745 mmHg 85%
    12:00 +6°C° 0.1 mm 5 m/s 746 mmHg 80%
    13:00 +7°C° 0.1 mm 5 m/s 746 mmHg 76%
    14:00 +7°C° 0.1 mm 5 m/s 747 mmHg 71%
    15:00 +7°C° 0.1 mm 5 m/s 747 mmHg 72%
    16:00 +7°C° 0.1 mm 4 m/s 748 mmHg 73%
    17:00 +6°C° 0.1 mm 4 m/s 748 mmHg 74%
    18:00 +5°C° 0 mm 4 m/s 749 mmHg 76%
    19:00 +4°C° 0 mm 4 m/s 749 mmHg 77%
    20:00 +4°C° 0 mm 4 m/s 750 mmHg 79%
    21:00 +3°C° 0 mm 3 m/s 751 mmHg 79%
    22:00 +3°C° 0 mm 3 m/s 751 mmHg 79%
    23:00 +2°C° 0 mm 3 m/s 752 mmHg 78%

    Demain, 26 Septembre, Mercredi

    Heure Température Précipitation Vent Pression Humidité
    00:00 +2°C° 0 mm 3 m/s 753 mmHg 79%
    01:00 +2°C° 0 mm 3 m/s 753 mmHg 81%
    02:00 +1°C° 0 mm 3 m/s 754 mmHg 82%
    03:00 +1°C° 0 mm 3 m/s 754 mmHg 85%
    04:00 +1°C° 0 mm 3 m/s 754 mmHg 88%
    05:00 +1°C° 0 mm 3 m/s 754 mmHg 91%
    06:00 +2°C° 0 mm 3 m/s 755 mmHg 88%
    07:00 +3°C° 0 mm 3 m/s 755 mmHg 84%
    08:00 +4°C° 0 mm 3 m/s 755 mmHg 80%
    09:00 +6°C° 0 mm 4 m/s 755 mmHg 73%
    10:00 +7°C° 0 mm 4 m/s 755 mmHg 66%
    11:00 +9°C° 0 mm 5 m/s 754 mmHg 58%
    12:00 +10°C° 0 mm 5 m/s 754 mmHg 58%
    13:00 +10°C° 0 mm 5 m/s 753 mmHg 57%
    14:00 +11°C° 0 mm 6 m/s 753 mmHg 56%
    15:00 +10°C° 0.1 mm 6 m/s 752 mmHg 62%
    16:00 +9°C° 0.1 mm 6 m/s 751 mmHg 67%
    17:00 +8°C° 0.1 mm 6 m/s 750 mmHg 72%
    18:00 +7°C° 0.6 mm 6 m/s 750 mmHg 76%
    19:00 +6°C° 0.6 mm 7 m/s 749 mmHg 81%
    20:00 +5°C° 0.6 mm 7 m/s 748 mmHg 85%
    21:00 +5°C° 0.8 mm 8 m/s 747 mmHg 87%
    22:00 +5°C° 0.8 mm 8 m/s 746 mmHg 88%
    23:00 +5°C° 0.8 mm 8 m/s 744 mmHg 89%

    Après-demain, 27 Septembre, Jeudi

    Heure Température Précipitation Vent Pression Humidité
    00:00 +5°C° 0.6 mm 8 m/s 744 mmHg 89%
    01:00 +5°C° 0.6 mm 8 m/s 743 mmHg 90%
    02:00 +5°C° 0.6 mm 8 m/s 742 mmHg 90%
    03:00 +6°C° 0.6 mm 8 m/s 741 mmHg 91%
    04:00 +6°C° 0.6 mm 7 m/s 741 mmHg 91%
    05:00 +8°C° 0.6 mm 7 m/s 740 mmHg 92%
    06:00 +8°C° 1.2 mm 6 m/s 740 mmHg 92%
    07:00 +9°C° 1.2 mm 5 m/s 740 mmHg 92%
    08:00 +10°C° 1.2 mm 4 m/s 741 mmHg 92%
    09:00 +11°C° 0.1 mm 4 m/s 741 mmHg 83%
    10:00 +10°C° 0.1 mm 5 m/s 741 mmHg 74%
    11:00 +12°C° 0.1 mm 5 m/s 742 mmHg 65%
    12:00 +12°C° 0 mm 5 m/s 742 mmHg 60%
    13:00 +13°C° 0 mm 6 m/s 742 mmHg 56%
    14:00 +13°C° 0 mm 6 m/s 742 mmHg 52%
    15:00 +13°C° 0 mm 5 m/s 743 mmHg 56%
    16:00 +12°C° 0 mm 4 m/s 743 mmHg 61%
    17:00 +11°C° 0 mm 4 m/s 743 mmHg 65%
    18:00 +10°C° 0 mm 4 m/s 744 mmHg 67%
    19:00 +8°C° 0 mm 4 m/s 744 mmHg 69%
    20:00 +8°C° 0 mm 4 m/s 745 mmHg 71%
    21:00 +8°C° 0 mm 3 m/s 745 mmHg 74%
    22:00 +7°C° 0 mm 3 m/s 745 mmHg 77%
    23:00 +5°C° 0 mm 3 m/s 745 mmHg 79%

    28 Septembre, Vendredi

    Heure Température Précipitation Vent Pression Humidité
    00:00 +5°C° 0 mm 3 m/s 745 mmHg 82%
    01:00 +5°C° 0 mm 3 m/s 745 mmHg 86%
    02:00 +5°C° 0 mm 3 m/s 744 mmHg 89%
    03:00 +6°C° 0.1 mm 4 m/s 743 mmHg 88%
    04:00 +7°C° 0.1 mm 6 m/s 742 mmHg 87%
    05:00 +8°C° 0.1 mm 7 m/s 741 mmHg 86%
    06:00 +9°C° 0.3 mm 7 m/s 740 mmHg 86%
    07:00 +11°C° 0.3 mm 8 m/s 739 mmHg 86%
    08:00 +12°C° 0.3 mm 8 m/s 737 mmHg 85%
    09:00 +12°C° 1 mm 8 m/s 737 mmHg 87%
    10:00 +12°C° 1 mm 8 m/s 737 mmHg 88%
    11:00 +12°C° 1 mm 8 m/s 737 mmHg 89%
    12:00 +12°C° 0.8 mm 8 m/s 737 mmHg 84%
    13:00 +12°C° 0.8 mm 8 m/s 738 mmHg 79%
    14:00 +12°C° 0.8 mm 8 m/s 738 mmHg 73%
    15:00 +10°C° 0.1 mm 7 m/s 740 mmHg 76%
    16:00 +8°C° 0.1 mm 6 m/s 741 mmHg 78%
    17:00 +6°C° 0.1 mm 5 m/s 742 mmHg 80%
    18:00 +5°C° 0 mm 4 m/s 743 mmHg 84%
    19:00 +4°C° 0 mm 3 m/s 744 mmHg 88%
    20:00 +4°C° 0 mm 2 m/s 745 mmHg 91%
    21:00 +4°C° 0 mm 2 m/s 746 mmHg 91%
    22:00 +4°C° 0 mm 2 m/s 746 mmHg 92%
    23:00 +4°C° 0 mm 2 m/s 746 mmHg 92%

    29 Septembre, Samedi

    Heure Température Précipitation Vent Pression Humidité
    00:00 +4°C° 0 mm 2 m/s 747 mmHg 93%
    01:00 +4°C° 0 mm 2 m/s 747 mmHg 93%
    02:00 +4°C° 0 mm 2 m/s 748 mmHg 94%
    03:00 +3°C° 0 mm 2 m/s 748 mmHg 95%
    04:00 +3°C° 0 mm 2 m/s 748 mmHg 96%
    05:00 +3°C° 0 mm 2 m/s 749 mmHg 97%
    06:00 +3°C° 0 mm 2 m/s 749 mmHg 94%
    07:00 +4°C° 0 mm 2 m/s 750 mmHg 91%
    08:00 +4°C° 0 mm 2 m/s 750 mmHg 88%
    09:00 +5°C° 0 mm 2 m/s 751 mmHg 79%
    10:00 +7°C° 0 mm 3 m/s 751 mmHg 70%
    11:00 +8°C° 0 mm 3 m/s 752 mmHg 61%
    12:00 +8°C° 0 mm 3 m/s 752 mmHg 58%
    13:00 +8°C° 0 mm 3 m/s 752 mmHg 55%
    14:00 +9°C° 0 mm 3 m/s 752 mmHg 53%
    15:00 +8°C° 0 mm 3 m/s 753 mmHg 58%
    16:00 +7°C° 0 mm 2 m/s 753 mmHg 63%
    17:00 +6°C° 0 mm 2 m/s 753 mmHg 68%
    18:00 +5°C° 0 mm 2 m/s 754 mmHg 72%
    19:00 +5°C° 0 mm 1 m/s 755 mmHg 76%
    20:00 +3°C° 0 mm 1 m/s 755 mmHg 80%
    21:00 +3°C° 0 mm 1 m/s 755 mmHg 81%
    22:00 +3°C° 0 mm 1 m/s 756 mmHg 82%
    23:00 +2°C° 0 mm 1 m/s 756 mmHg 83%

    30 Septembre, Dimanche

    Heure Température Précipitation Vent Pression Humidité
    00:00 +2°C° 0 mm 1 m/s 756 mmHg 83%
    01:00 +2°C° 0 mm 1 m/s 756 mmHg 83%
    02:00 +2°C° 0 mm 1 m/s 756 mmHg 83%
    03:00 +1°C° 0 mm 2 m/s 756 mmHg 83%
    04:00 +1°C° 0 mm 2 m/s 756 mmHg 82%
    05:00 +1°C° 0 mm 2 m/s 756 mmHg 81%
    06:00 +1°C° 0 mm 3 m/s 756 mmHg 77%
    07:00 +2°C° 0 mm 3 m/s 756 mmHg 73%
    08:00 +3°C° 0 mm 4 m/s 756 mmHg 69%
    09:00 +5°C° 0 mm 4 m/s 756 mmHg 66%
    10:00 +7°C° 0 mm 4 m/s 756 mmHg 62%
    11:00 +8°C° 0 mm 5 m/s 756 mmHg 59%
    12:00 +9°C° 0 mm 5 m/s 755 mmHg 58%
    13:00 +9°C° 0 mm 5 m/s 755 mmHg 56%
    14:00 +10°C° 0 mm 5 m/s 754 mmHg 55%
    15:00 +10°C° 0 mm 4 m/s 754 mmHg 59%
    16:00 +8°C° 0 mm 4 m/s 754 mmHg 64%
    17:00 +8°C° 0 mm 3 m/s 754 mmHg 69%
    18:00 +8°C° 0 mm 3 m/s 754 mmHg 70%
    19:00 +7°C° 0 mm 3 m/s 754 mmHg 71%
    20:00 +7°C° 0 mm 3 m/s 754 mmHg 72%
    21:00 +7°C° 0 mm 3 m/s 754 mmHg 72%
    22:00 +5°C° 0 mm 3 m/s 753 mmHg 72%
    23:00 +5°C° 0 mm 3 m/s 753 mmHg 72%
    Voir plus